QPF
0.00 0.01 0.02 0.02 0.02 0.02 0.02 0.02 0.02 0.01 0.01 0.02 0.01 0.01 0.02 0.02 0.02 0.03 0.02 0.02 0.02 0.02 0.01 0.02 0.02 0.02 0.01 0.01 0.01 0.00 0.00 0.00 0.00 0.00 0.01 0.01 0.01 0.01 0.00 0.00 0.00 0.00 0.01
0.00 0.01 0.02 0.02 0.02 0.02 0.02 0.02 0.02 0.01 0.01 0.02 0.02 0.02 0.02 0.01 0.02 0.03 0.03 0.03 0.03 0.03 0.03 0.03 0.02 0.01 0.00 0.00 0.00 0.00 0.00 0.00 0.00 0.00 0.00 0.01 0.01 0.00 0.00 0.00 0.00 0.01 0.01
0.00 0.01 0.01 0.02 0.01 0.01 0.01 0.02 0.03 0.03 0.02 0.02 0.03 0.03 0.03 0.02 0.02 0.03 0.02 0.03 0.03 0.03 0.03 0.04 0.04 0.02 0.01 0.00 0.00 0.00 0.00 0.00 0.00 0.00 0.00 0.01 0.01 0.00 0.00 0.00 0.00 0.01 0.01
0.01 0.01 0.01 0.01 0.01 0.01 0.01 0.01 0.02 0.02 0.02 0.03 0.04 0.03 0.03 0.03 0.03 0.02 0.02 0.02 0.03 0.03 0.03 0.04 0.04 0.04 0.03 0.01 0.00 0.00 0.00 0.00 0.00 0.00 0.00 0.00 0.01 0.01 0.00 0.00 0.00 0.00 0.01
0.01 0.01 0.01 0.01 0.01 0.01 0.01 0.01 0.01 0.02 0.02 0.03 0.04 0.04 0.04 0.04 0.03 0.02 0.02 0.02 0.03 0.02 0.02 0.03 0.03 0.03 0.05 0.04 0.02 0.00 0.00 0.00 0.00 0.00 0.00 0.00 0.01 0.01 0.00 0.00 0.00 0.01 0.01
0.01 0.01 0.01 0.01 0.01 0.01 0.00 0.01 0.01 0.02 0.02 0.03 0.02 0.03 0.03 0.03 0.03 0.03 0.02 0.02 0.02 0.02 0.01 0.02 0.02 0.03 0.03 0.04 0.04 0.02 0.01 0.00 0.00 0.00 0.00 0.00 0.01 0.01 0.00 0.00 0.00 0.00 0.00
0.01 0.02 0.02 0.01 0.01 0.01 0.01 0.01 0.01 0.02 0.03 0.03 0.02 0.02 0.03 0.03 0.03 0.03 0.03 0.02 0.02 0.01 0.01 0.01 0.02 0.02 0.02 0.03 0.03 0.04 0.03 0.01 0.00 0.00 0.00 0.00 0.01 0.01 0.00 0.00 0.00 0.00 0.01
0.01 0.02 0.03 0.02 0.02 0.02 0.01 0.01 0.01 0.02 0.02 0.03 0.03 0.02 0.02 0.02 0.02 0.02 0.02 0.02 0.01 0.01 0.01 0.01 0.01 0.01 0.01 0.01 0.02 0.03 0.03 0.02 0.01 0.00 0.00 0.00 0.00 0.00 0.00 0.00 0.00 0.01 0.01
0.01 0.02 0.03 0.03 0.03 0.03 0.02 0.01 0.01 0.01 0.02 0.02 0.03 0.03 0.03 0.02 0.02 0.02 0.01 0.01 0.01 0.01 0.01 0.01 0.01 0.01 0.01 0.01 0.01 0.01 0.02 0.03 0.02 0.01 0.00 0.00 0.00 0.00 0.00 0.00 0.01 0.01 0.01
0.01 0.02 0.02 0.03 0.03 0.04 0.03 0.02 0.01 0.01 0.01 0.02 0.02 0.02 0.03 0.03 0.02 0.01 0.01 0.01 0.01 0.01 0.01 0.01 0.01 0.01 0.01 0.01 0.00 0.00 0.01 0.01 0.02 0.02 0.01 0.01 0.00 0.00 0.00 0.01 0.01 0.01 0.01
0.02 0.02 0.01 0.01 0.02 0.02 0.02 0.02 0.01 0.01 0.01 0.01 0.01 0.02 0.03 0.03 0.03 0.02 0.01 0.01 0.01 0.01 0.01 0.01 0.01 0.01 0.01 0.01 0.00 0.00 0.00 0.00 0.01 0.01 0.01 0.01 0.01 0.00 0.01 0.01 0.01 0.01 0.01
0.02 0.02 0.02 0.02 0.02 0.02 0.02 0.01 0.01 0.02 0.02 0.02 0.01 0.01 0.02 0.03 0.03 0.03 0.02 0.01 0.01 0.01 0.01 0.00 0.00 0.00 0.00 0.00 0.00 0.00 0.00 0.00 0.00 0.01 0.01 0.02 0.01 0.01 0.01 0.01 0.01 0.01 0.01
0.02 0.02 0.02 0.02 0.02 0.02 0.02 0.02 0.02 0.02 0.02 0.02 0.01 0.01 0.01 0.02 0.03 0.04 0.05 0.04 0.02 0.01 0.01 0.01 0.00 0.00 0.00 0.00 0.00 0.00 0.00 0.00 0.00 0.01 0.01 0.01 0.01 0.01 0.01 0.01 0.01 0.01 0.01
0.02 0.02 0.02 0.02 0.02 0.03 0.03 0.03 0.02 0.02 0.02 0.01 0.01 0.01 0.01 0.01 0.03 0.04 0.05 0.06 0.05 0.03 0.01 0.01 0.01 0.00 0.00 0.00 0.00 0.00 0.00 0.00 0.00 0.00 0.01 0.01 0.01 0.01 0.01 0.01 0.01 0.01 0.01
0.01 0.01 0.01 0.01 0.01 0.02 0.02 0.03 0.03 0.03 0.03 0.02 0.02 0.02 0.01 0.01 0.02 0.03 0.03 0.04 0.05 0.04 0.02 0.01 0.01 0.01 0.00 0.00 0.00 0.00 0.00 0.00 0.00 0.00 0.00 0.01 0.01 0.01 0.01 0.02 0.02 0.02 0.02
0.01 0.01 0.01 0.01 0.01 0.02 0.03 0.03 0.03 0.03 0.03 0.03 0.03 0.03 0.02 0.01 0.01 0.02 0.03 0.03 0.03 0.04 0.03 0.02 0.01 0.01 0.01 0.01 0.00 0.00 0.00 0.00 0.00 0.00 0.00 0.00 0.00 0.01 0.01 0.01 0.02 0.02 0.03
0.01 0.01 0.01 0.01 0.02 0.02 0.03 0.03 0.03 0.03 0.02 0.02 0.02 0.02 0.03 0.03 0.02 0.02 0.02 0.03 0.03 0.03 0.03 0.03 0.02 0.01 0.01 0.01 0.01 0.00 0.00 0.00 0.00 0.00 0.00 0.00 0.00 0.00 0.00 0.01 0.01 0.02 0.02
0.02 0.01 0.01 0.01 0.01 0.02 0.02 0.02 0.02 0.02 0.03 0.04 0.04 0.03 0.02 0.03 0.03 0.03 0.03 0.04 0.03 0.03 0.03 0.03 0.03 0.02 0.01 0.01 0.01 0.00 0.00 0.00 0.00 0.00 0.00 0.00 0.00 0.00 0.00 0.00 0.01 0.01 0.01
0.03 0.03 0.02 0.02 0.01 0.01 0.01 0.01 0.02 0.02 0.03 0.04 0.06 0.07 0.06 0.04 0.04 0.04 0.04 0.04 0.05 0.05 0.04 0.04 0.04 0.03 0.02 0.01 0.01 0.00 0.00 0.00 0.00 0.00 0.00 0.00 0.00 0.00 0.00 0.00 0.00 0.00 0.01
0.03 0.03 0.03 0.02 0.02 0.02 0.02 0.02 0.02 0.03 0.03 0.03 0.04 0.06 0.07 0.07 0.06 0.05 0.05 0.04 0.04 0.05 0.06 0.05 0.05 0.05 0.04 0.02 0.01 0.01 0.00 0.00 0.00 0.00 0.00 0.00 0.00 0.00 0.00 0.00 0.00 0.01 0.02
0.04 0.05 0.06 0.06 0.05 0.04 0.04 0.04 0.04 0.04 0.03 0.03 0.04 0.04 0.05 0.06 0.06 0.06 0.05 0.04 0.04 0.05 0.05 0.05 0.05 0.05 0.04 0.03 0.02 0.02 0.01 0.01 0.01 0.01 0.01 0.00 0.01 0.00 0.00 0.01 0.01 0.02 0.02
0.03 0.05 0.05 0.05 0.05 0.05 0.05 0.05 0.05 0.04 0.04 0.03 0.03 0.03 0.04 0.04 0.05 0.05 0.05 0.05 0.05 0.05 0.06 0.05 0.05 0.04 0.04 0.03 0.03 0.03 0.02 0.01 0.01 0.01 0.01 0.01 0.01 0.01 0.01 0.02 0.03 0.03 0.02
0.01 0.02 0.02 0.03 0.03 0.03 0.04 0.04 0.04 0.03 0.03 0.03 0.03 0.03 0.03 0.04 0.04 0.05 0.05 0.06 0.06 0.06 0.06 0.06 0.06 0.06 0.06 0.05 0.04 0.05 0.05 0.03 0.02 0.01 0.01 0.02 0.02 0.02 0.03 0.03 0.03 0.03 0.03
0.01 0.01 0.01 0.02 0.02 0.02 0.02 0.02 0.02 0.02 0.03 0.02 0.02 0.02 0.03 0.03 0.03 0.04 0.05 0.06 0.07 0.08 0.08 0.08 0.08 0.08 0.08 0.07 0.06 0.06 0.07 0.07 0.06 0.05 0.04 0.03 0.03 0.03 0.03 0.03 0.04 0.04 0.04
0.03 0.02 0.01 0.01 0.01 0.02 0.02 0.03 0.03 0.04 0.03 0.03 0.02 0.03 0.03 0.03 0.03 0.03 0.04 0.05 0.06 0.08 0.09 0.09 0.09 0.10 0.10 0.10 0.10 0.10 0.10 0.10 0.10 0.10 0.09 0.06 0.05 0.05 0.04 0.04 0.04 0.05 0.04
0.06 0.06 0.05 0.04 0.02 0.02 0.02 0.03 0.03 0.03 0.04 0.05 0.04 0.04 0.03 0.03 0.03 0.04 0.04 0.05 0.05 0.06 0.07 0.08 0.09 0.10 0.11 0.10 0.10 0.10 0.10 0.11 0.11 0.11 0.11 0.10 0.09 0.07 0.05 0.05 0.04 0.04 0.04
MSLP
1017.96 1017.93 1017.98 1018.12 1018.35 1018.62 1018.89 1019.10 1019.21 1019.20 1019.08 1018.89 1018.67 1018.50 1018.38 1018.34 1018.37 1018.43 1018.49 1018.52 1018.52 1018.50 1018.47 1018.46 1018.49 1018.56 1018.67 1018.77 1018.85 1018.89 1018.87 1018.81 1018.72 1018.62 1018.55 1018.53 1018.54 1018.58 1018.63 1018.67 1018.69 1018.68 1018.66
1018.38 1018.29 1018.27 1018.37 1018.58 1018.87 1019.17 1019.43 1019.59 1019.62 1019.52 1019.34 1019.11 1018.91 1018.76 1018.68 1018.66 1018.68 1018.70 1018.71 1018.69 1018.65 1018.62 1018.62 1018.66 1018.75 1018.86 1018.99 1019.08 1019.11 1019.09 1019.01 1018.91 1018.80 1018.74 1018.72 1018.75 1018.82 1018.90 1018.97 1019.00 1019.00 1018.97
1018.89 1018.71 1018.61 1018.63 1018.80 1019.06 1019.37 1019.66 1019.85 1019.92 1019.86 1019.70 1019.48 1019.27 1019.10 1018.99 1018.94 1018.92 1018.91 1018.89 1018.85 1018.80 1018.76 1018.76 1018.82 1018.92 1019.06 1019.19 1019.29 1019.32 1019.28 1019.19 1019.07 1018.95 1018.87 1018.85 1018.89 1018.98 1019.08 1019.17 1019.23 1019.23 1019.20
1019.47 1019.19 1018.98 1018.91 1019.00 1019.21 1019.49 1019.77 1019.98 1020.07 1020.04 1019.91 1019.71 1019.52 1019.35 1019.24 1019.17 1019.13 1019.10 1019.06 1019.00 1018.94 1018.91 1018.91 1018.98 1019.10 1019.24 1019.38 1019.47 1019.50 1019.44 1019.32 1019.17 1019.02 1018.92 1018.89 1018.93 1019.02 1019.14 1019.25 1019.32 1019.35 1019.32
1020.11 1019.72 1019.40 1019.23 1019.22 1019.35 1019.57 1019.81 1019.99 1020.08 1020.06 1019.95 1019.78 1019.61 1019.47 1019.37 1019.31 1019.28 1019.25 1019.21 1019.15 1019.09 1019.06 1019.07 1019.14 1019.26 1019.41 1019.55 1019.63 1019.63 1019.55 1019.40 1019.22 1019.04 1018.91 1018.86 1018.88 1018.96 1019.08 1019.20 1019.29 1019.33 1019.32
1020.82 1020.32 1019.90 1019.61 1019.50 1019.53 1019.67 1019.83 1019.96 1020.01 1019.97 1019.86 1019.71 1019.57 1019.46 1019.40 1019.37 1019.36 1019.35 1019.32 1019.27 1019.23 1019.20 1019.22 1019.29 1019.41 1019.54 1019.66 1019.73 1019.71 1019.61 1019.43 1019.22 1019.01 1018.85 1018.77 1018.77 1018.83 1018.94 1019.06 1019.15 1019.21 1019.22
1021.60 1021.02 1020.50 1020.13 1019.91 1019.85 1019.88 1019.95 1019.99 1019.97 1019.89 1019.75 1019.61 1019.48 1019.40 1019.37 1019.38 1019.40 1019.42 1019.41 1019.38 1019.34 1019.31 1019.33 1019.39 1019.49 1019.61 1019.71 1019.75 1019.72 1019.59 1019.40 1019.17 1018.95 1018.77 1018.66 1018.63 1018.68 1018.76 1018.87 1018.95 1019.02 1019.04
1022.48 1021.83 1021.26 1020.82 1020.53 1020.38 1020.31 1020.27 1020.20 1020.10 1019.94 1019.76 1019.59 1019.45 1019.38 1019.37 1019.40 1019.44 1019.47 1019.48 1019.45 1019.41 1019.38 1019.38 1019.43 1019.50 1019.59 1019.66 1019.68 1019.63 1019.50 1019.31 1019.08 1018.86 1018.69 1018.57 1018.53 1018.54 1018.60 1018.68 1018.75 1018.80 1018.83
1023.46 1022.79 1022.19 1021.73 1021.40 1021.18 1021.02 1020.88 1020.71 1020.50 1020.25 1020.00 1019.78 1019.62 1019.53 1019.51 1019.53 1019.56 1019.58 1019.57 1019.53 1019.47 1019.42 1019.39 1019.39 1019.43 1019.48 1019.51 1019.50 1019.44 1019.31 1019.14 1018.94 1018.75 1018.60 1018.50 1018.45 1018.45 1018.47 1018.52 1018.55 1018.58 1018.59
1024.55 1023.88 1023.31 1022.86 1022.51 1022.25 1022.03 1021.79 1021.53 1021.22 1020.89 1020.57 1020.29 1020.07 1019.94 1019.87 1019.84 1019.83 1019.81 1019.75 1019.67 1019.56 1019.46 1019.38 1019.33 1019.31 1019.30 1019.28 1019.24 1019.16 1019.04 1018.89 1018.73 1018.59 1018.47 1018.40 1018.37 1018.36 1018.36 1018.36 1018.36 1018.34 1018.33
1025.72 1025.09 1024.56 1024.14 1023.81 1023.53 1023.26 1022.96 1022.62 1022.24 1021.84 1021.46 1021.11 1020.84 1020.64 1020.51 1020.41 1020.31 1020.21 1020.07 1019.91 1019.74 1019.57 1019.42 1019.29 1019.19 1019.11 1019.03 1018.93 1018.81 1018.68 1018.54 1018.42 1018.33 1018.27 1018.24 1018.23 1018.22 1018.20 1018.17 1018.12 1018.06 1018.00
1026.91 1026.35 1025.89 1025.52 1025.21 1024.92 1024.62 1024.28 1023.90 1023.47 1023.03 1022.61 1022.23 1021.91 1021.64 1021.43 1021.23 1021.04 1020.82 1020.59 1020.33 1020.07 1019.82 1019.58 1019.37 1019.18 1018.99 1018.81 1018.63 1018.44 1018.27 1018.12 1018.01 1017.94 1017.92 1017.93 1017.95 1017.95 1017.92 1017.86 1017.77 1017.66 1017.56
1028.07 1027.59 1027.20 1026.87 1026.58 1026.29 1025.97 1025.61 1025.20 1024.77 1024.32 1023.90 1023.51 1023.17 1022.86 1022.57 1022.28 1021.98 1021.66 1021.31 1020.96 1020.61 1020.27 1019.94 1019.63 1019.33 1019.03 1018.72 1018.42 1018.12 1017.85 1017.64 1017.50 1017.43 1017.41 1017.44 1017.48 1017.49 1017.46 1017.38 1017.26 1017.12 1016.98
1029.16 1028.76 1028.42 1028.13 1027.84 1027.53 1027.19 1026.82 1026.41 1026.00 1025.59 1025.20 1024.84 1024.51 1024.18 1023.84 1023.48 1023.08 1022.66 1022.23 1021.78 1021.35 1020.93 1020.53 1020.13 1019.71 1019.28 1018.82 1018.35 1017.90 1017.50 1017.17 1016.93 1016.81 1016.76 1016.78 1016.82 1016.83 1016.80 1016.71 1016.57 1016.41 1016.25
1030.14 1029.81 1029.51 1029.22 1028.91 1028.57 1028.21 1027.82 1027.43 1027.05 1026.70 1026.38 1026.09 1025.79 1025.47 1025.12 1024.71 1024.26 1023.76 1023.26 1022.75 1022.27 1021.79 1021.33 1020.84 1020.33 1019.75 1019.14 1018.49 1017.85 1017.26 1016.76 1016.39 1016.16 1016.04 1016.01 1016.02 1016.02 1015.98 1015.89 1015.75 1015.57 1015.41
1031.00 1030.72 1030.43 1030.12 1029.77 1029.39 1028.98 1028.58 1028.21 1027.88 1027.60 1027.37 1027.15 1026.92 1026.64 1026.29 1025.87 1025.38 1024.84 1024.30 1023.77 1023.26 1022.76 1022.27 1021.73 1021.12 1020.43 1019.66 1018.83 1018.00 1017.21 1016.52 1015.97 1015.58 1015.35 1015.23 1015.19 1015.16 1015.11 1015.01 1014.86 1014.69 1014.52
1031.76 1031.51 1031.22 1030.88 1030.47 1030.03 1029.58 1029.16 1028.79 1028.51 1028.30 1028.14 1028.00 1027.83 1027.59 1027.26 1026.84 1026.34 1025.80 1025.25 1024.72 1024.22 1023.73 1023.23 1022.67 1022.01 1021.23 1020.34 1019.36 1018.34 1017.36 1016.48 1015.75 1015.20 1014.82 1014.59 1014.47 1014.38 1014.30 1014.19 1014.04 1013.87 1013.69
1032.45 1032.22 1031.92 1031.54 1031.08 1030.58 1030.08 1029.63 1029.27 1029.01 1028.85 1028.75 1028.66 1028.53 1028.32 1028.01 1027.59 1027.09 1026.55 1026.02 1025.51 1025.03 1024.57 1024.09 1023.54 1022.87 1022.05 1021.08 1020.00 1018.85 1017.72 1016.68 1015.78 1015.07 1014.56 1014.21 1013.98 1013.82 1013.68 1013.54 1013.37 1013.19 1013.00
1033.11 1032.88 1032.57 1032.15 1031.65 1031.11 1030.57 1030.10 1029.73 1029.48 1029.33 1029.25 1029.18 1029.06 1028.85 1028.53 1028.11 1027.61 1027.08 1026.56 1026.08 1025.64 1025.22 1024.78 1024.26 1023.61 1022.79 1021.81 1020.68 1019.47 1018.26 1017.11 1016.09 1015.26 1014.61 1014.13 1013.79 1013.54 1013.33 1013.13 1012.93 1012.72 1012.50
1033.74 1033.52 1033.20 1032.77 1032.24 1031.68 1031.12 1030.63 1030.25 1029.98 1029.82 1029.71 1029.62 1029.47 1029.23 1028.88 1028.44 1027.93 1027.39 1026.88 1026.43 1026.02 1025.64 1025.24 1024.77 1024.16 1023.38 1022.43 1021.33 1020.13 1018.90 1017.71 1016.64 1015.71 1014.96 1014.37 1013.91 1013.55 1013.24 1012.97 1012.70 1012.45 1012.19
1034.34 1034.13 1033.81 1033.38 1032.86 1032.30 1031.75 1031.25 1030.85 1030.56 1030.35 1030.19 1030.03 1029.82 1029.52 1029.12 1028.64 1028.10 1027.56 1027.05 1026.60 1026.21 1025.86 1025.49 1025.06 1024.50 1023.78 1022.90 1021.87 1020.74 1019.57 1018.41 1017.33 1016.37 1015.54 1014.85 1014.27 1013.78 1013.36 1012.99 1012.64 1012.32 1012.02
1034.89 1034.67 1034.37 1033.96 1033.47 1032.94 1032.41 1031.93 1031.52 1031.19 1030.92 1030.69 1030.45 1030.15 1029.77 1029.31 1028.79 1028.22 1027.66 1027.15 1026.69 1026.30 1025.94 1025.58 1025.17 1024.66 1024.00 1023.21 1022.28 1021.26 1020.18 1019.10 1018.06 1017.10 1016.22 1015.44 1014.75 1014.13 1013.58 1013.09 1012.65 1012.25 1011.90
1035.33 1035.11 1034.83 1034.46 1034.02 1033.54 1033.06 1032.60 1032.19 1031.83 1031.50 1031.19 1030.85 1030.47 1030.01 1029.50 1028.93 1028.34 1027.77 1027.24 1026.77 1026.36 1025.98 1025.60 1025.18 1024.68 1024.08 1023.36 1022.54 1021.63 1020.68 1019.70 1018.72 1017.78 1016.87 1016.02 1015.21 1014.47 1013.78 1013.16 1012.61 1012.14 1011.73
1035.62 1035.42 1035.15 1034.83 1034.45 1034.03 1033.60 1033.18 1032.78 1032.39 1032.01 1031.63 1031.21 1030.75 1030.24 1029.68 1029.09 1028.49 1027.92 1027.38 1026.90 1026.45 1026.02 1025.60 1025.14 1024.63 1024.04 1023.38 1022.64 1021.85 1021.00 1020.12 1019.22 1018.31 1017.38 1016.46 1015.55 1014.67 1013.85 1013.11 1012.46 1011.91 1011.47
1035.75 1035.55 1035.31 1035.03 1034.71 1034.36 1033.99 1033.62 1033.23 1032.83 1032.41 1031.96 1031.48 1030.96 1030.41 1029.83 1029.24 1028.66 1028.10 1027.56 1027.06 1026.57 1026.09 1025.60 1025.09 1024.53 1023.93 1023.29 1022.61 1021.89 1021.14 1020.35 1019.51 1018.62 1017.68 1016.70 1015.70 1014.71 1013.76 1012.90 1012.16 1011.55 1011.07
1035.70 1035.51 1035.30 1035.06 1034.80 1034.52 1034.21 1033.87 1033.50 1033.09 1032.64 1032.15 1031.62 1031.07 1030.50 1029.92 1029.35 1028.79 1028.26 1027.73 1027.22 1026.70 1026.16 1025.60 1025.01 1024.40 1023.76 1023.11 1022.46 1021.79 1021.09 1020.36 1019.57 1018.70 1017.75 1016.73 1015.66 1014.57 1013.53 1012.58 1011.75 1011.09 1010.58
Thickness
5698 5696 5692 5691 5691 5690 5690 5690 5690 5690 5690 5690 5690 5690 5689 5689 5688 5688 5688 5688 5688 5688 5688 5688 5688 5688 5687 5687 5687 5687 5687 5687 5686 5686 5687 5686 5686 5686 5685 5685 5686 5686 5684
5698 5695 5691 5690 5689 5689 5688 5688 5688 5688 5688 5688 5688 5687 5687 5687 5686 5686 5686 5685 5686 5686 5685 5685 5685 5685 5684 5684 5684 5684 5684 5683 5683 5683 5684 5684 5683 5683 5682 5682 5682 5682 5681
5696 5693 5690 5688 5688 5687 5687 5686 5686 5686 5686 5686 5685 5685 5685 5684 5684 5683 5683 5683 5683 5683 5683 5682 5682 5681 5681 5681 5681 5681 5680 5680 5680 5680 5681 5683 5682 5680 5680 5679 5679 5678 5678
5692 5690 5688 5686 5685 5685 5684 5684 5684 5684 5683 5683 5683 5682 5682 5681 5681 5681 5680 5680 5680 5680 5679 5679 5679 5678 5678 5677 5677 5677 5677 5677 5677 5678 5680 5680 5680 5677 5677 5676 5676 5675 5675
5688 5687 5685 5683 5682 5681 5681 5681 5681 5681 5680 5680 5680 5679 5679 5678 5678 5677 5677 5677 5676 5676 5676 5676 5675 5675 5674 5674 5674 5674 5674 5674 5674 5676 5677 5677 5677 5674 5674 5673 5673 5672 5671
5684 5683 5681 5679 5679 5678 5678 5678 5677 5677 5677 5677 5677 5676 5676 5675 5674 5674 5673 5673 5673 5673 5672 5672 5671 5671 5670 5670 5670 5670 5670 5670 5672 5674 5674 5674 5673 5671 5671 5670 5670 5669 5668
5680 5679 5677 5676 5675 5675 5674 5674 5674 5674 5673 5673 5673 5672 5672 5671 5671 5670 5670 5669 5669 5669 5668 5668 5667 5667 5666 5666 5666 5666 5666 5666 5668 5670 5670 5670 5669 5667 5667 5667 5666 5666 5666
5675 5673 5672 5671 5671 5670 5670 5670 5670 5670 5670 5669 5669 5668 5668 5667 5667 5667 5666 5666 5665 5665 5665 5664 5663 5663 5662 5662 5662 5662 5662 5662 5664 5666 5666 5666 5665 5664 5664 5664 5664 5663 5663
5669 5668 5668 5667 5666 5666 5666 5666 5666 5666 5666 5665 5665 5664 5664 5663 5663 5663 5662 5662 5661 5661 5661 5660 5660 5659 5659 5659 5658 5658 5658 5659 5661 5662 5662 5662 5661 5660 5661 5661 5661 5660 5660
5662 5662 5662 5662 5662 5662 5662 5661 5661 5661 5661 5661 5660 5660 5660 5659 5658 5658 5658 5658 5658 5657 5657 5657 5656 5655 5655 5655 5655 5655 5655 5656 5658 5659 5659 5658 5656 5656 5657 5657 5657 5657 5657
5655 5656 5656 5656 5657 5657 5657 5656 5656 5656 5656 5656 5655 5655 5655 5656 5655 5655 5654 5653 5653 5653 5653 5653 5652 5652 5652 5652 5652 5652 5652 5653 5655 5655 5655 5654 5653 5653 5653 5654 5654 5654 5653
5648 5649 5650 5651 5651 5652 5652 5652 5652 5651 5651 5651 5651 5651 5651 5651 5651 5650 5649 5649 5649 5648 5648 5648 5648 5648 5648 5649 5649 5648 5649 5650 5650 5651 5651 5650 5649 5649 5650 5650 5650 5650 5650
5641 5642 5644 5645 5645 5646 5646 5646 5646 5646 5646 5646 5646 5646 5646 5645 5645 5645 5645 5644 5644 5644 5644 5644 5644 5644 5644 5645 5645 5645 5646 5646 5647 5647 5648 5646 5645 5645 5646 5646 5647 5647 5647
5634 5635 5637 5638 5639 5639 5640 5640 5640 5640 5640 5640 5639 5640 5640 5640 5640 5640 5639 5639 5639 5639 5639 5639 5639 5639 5639 5639 5640 5641 5641 5641 5642 5642 5643 5642 5642 5641 5642 5642 5643 5643 5643
5626 5628 5629 5630 5632 5632 5633 5633 5634 5634 5634 5633 5633 5634 5634 5634 5634 5634 5634 5633 5633 5633 5634 5634 5634 5634 5634 5634 5635 5635 5636 5637 5637 5638 5639 5638 5637 5637 5637 5637 5638 5638 5638
5618 5619 5621 5623 5624 5624 5625 5626 5627 5627 5626 5627 5627 5627 5627 5627 5627 5627 5628 5627 5627 5627 5627 5628 5628 5628 5629 5629 5630 5630 5630 5631 5632 5633 5633 5634 5633 5632 5632 5632 5632 5632 5632
5609 5611 5612 5614 5615 5617 5617 5618 5618 5619 5619 5619 5619 5619 5619 5619 5620 5620 5621 5620 5620 5620 5621 5621 5621 5622 5622 5623 5624 5624 5625 5625 5626 5626 5627 5627 5628 5627 5626 5625 5625 5625 5625
5600 5601 5603 5605 5607 5608 5609 5609 5610 5610 5610 5610 5610 5610 5610 5611 5611 5612 5612 5612 5612 5612 5613 5613 5613 5614 5615 5615 5616 5617 5618 5619 5619 5619 5619 5620 5620 5620 5619 5618 5618 5617 5617
5590 5592 5594 5596 5597 5599 5599 5600 5600 5600 5600 5600 5600 5601 5601 5602 5602 5602 5602 5603 5603 5604 5604 5604 5604 5603 5605 5606 5607 5609 5610 5612 5612 5612 5612 5611 5611 5611 5611 5611 5609 5609 5608
5580 5583 5585 5586 5587 5589 5589 5590 5590 5591 5590 5590 5590 5590 5591 5592 5592 5592 5593 5593 5593 5594 5594 5594 5594 5594 5594 5595 5597 5599 5601 5603 5603 5603 5602 5602 5601 5600 5600 5599 5599 5599 5598
5571 5574 5575 5576 5577 5578 5579 5579 5580 5580 5580 5579 5579 5579 5580 5580 5581 5581 5581 5581 5581 5581 5582 5583 5583 5584 5584 5583 5585 5588 5593 5594 5593 5592 5591 5590 5589 5588 5587 5587 5587 5587 5587
5561 5563 5565 5566 5566 5567 5568 5568 5568 5568 5568 5568 5567 5567 5568 5568 5568 5569 5569 5569 5568 5569 5569 5569 5570 5571 5571 5570 5571 5574 5580 5584 5583 5579 5578 5577 5576 5575 5574 5574 5573 5573 5574
5551 5552 5554 5555 5556 5557 5557 5558 5558 5558 5558 5558 5557 5556 5556 5556 5556 5556 5556 5556 5556 5556 5556 5555 5556 5556 5557 5557 5556 5557 5560 5566 5565 5567 5565 5563 5562 5562 5561 5561 5561 5560 5560
5540 5541 5543 5544 5546 5547 5547 5548 5547 5547 5546 5546 5544 5543 5543 5542 5543 5543 5543 5543 5543 5543 5542 5542 5541 5541 5542 5544 5543 5541 5540 5541 5542 5548 5551 5549 5548 5547 5547 5547 5547 5546 5545
5529 5530 5532 5533 5534 5536 5537 5537 5536 5535 5534 5533 5532 5532 5530 5529 5529 5529 5529 5529 5529 5529 5529 5528 5527 5527 5526 5527 5527 5526 5525 5524 5523 5523 5531 5533 5533 5532 5531 5531 5531 5531 5531
5518 5520 5521 5522 5522 5523 5524 5525 5524 5524 5522 5521 5521 5520 5519 5518 5517 5516 5515 5514 5514 5514 5513 5513 5512 5511 5510 5509 5509 5507 5507 5507 5507 5506 5509 5513 5515 5517 5515 5516 5515 5515 5515